Time,TemperatureF,DewpointF,PressureIn,WindDirection,WindDirectionDegrees,WindSpeedMPH,WindSpeedGustMPH,Humidity,HourlyPrecipIn,Conditions,Clouds,dailyrainin,SoftwareType,DateUTC
2014-08-30 00:22:00,74.0,48.0,-100.00,East,80,2.0,3.0,39,0.00,,,0.00,,2014-08-30 06:22:00,
2014-08-30 00:31:00,74.0,49.0,-100.00,ENE,76,4.0,5.0,41,0.00,,,0.01,,2014-08-30 06:31:00,
2014-08-30 00:32:00,74.0,48.0,-100.00,East,80,2.0,3.0,39,0.00,,,0.00,,2014-08-30 06:32:00,
2014-08-30 00:43:00,74.0,48.0,-100.00,East,80,2.0,3.0,39,0.00,,,0.00,,2014-08-30 06:43:00,
2014-08-30 01:22:00,74.0,49.0,-100.00,ENE,76,4.0,5.0,41,0.00,,,0.01,,2014-08-30 07:22:00,
2014-08-30 02:00:00,70.0,49.0,-100.00,NNW,347,1.0,2.0,47,0.00,,,0.01,,2014-08-30 08:00:00,
2014-08-30 02:22:00,71.0,48.0,-100.00,NW,323,3.0,5.0,45,0.00,,,0.01,,2014-08-30 08:22:00,
2014-08-30 02:30:00,68.0,48.0,-100.00,ENE,68,2.0,2.0,48,0.00,,,0.01,,2014-08-30 08:30:00,
2014-08-30 02:33:00,71.0,48.0,-100.00,NW,323,3.0,5.0,45,0.00,,,0.01,,2014-08-30 08:33:00,
2014-08-30 03:54:00,67.0,51.0,-100.00,South,179,1.0,3.0,56,0.00,,,0.01,,2014-08-30 09:54:00,
2014-08-30 04:03:00,67.0,51.0,-100.00,South,179,1.0,3.0,56,0.00,,,0.01,,2014-08-30 10:03:00,
2014-08-30 04:33:00,66.0,50.0,-100.00,WSW,253,3.0,4.0,56,0.00,,,0.01,,2014-08-30 10:33:00,
2014-08-30 05:03:00,63.0,49.0,-100.00,NE,56,3.0,4.0,61,0.00,,,0.01,,2014-08-30 11:03:00,
2014-08-30 06:22:00,64.0,47.0,-100.00,SW,222,3.0,5.0,56,0.00,,,0.01,,2014-08-30 12:22:00,
2014-08-30 07:22:00,62.0,48.0,-100.00,South,176,4.0,5.0,59,0.00,,,0.01,,2014-08-30 13:22:00,
2014-08-30 07:53:00,62.0,48.0,-100.00,SSW,212,12.0,15.0,61,0.00,,,0.01,,2014-08-30 13:53:00,
2014-08-30 08:03:00,62.0,48.0,-100.00,SSW,212,12.0,15.0,61,0.00,,,0.01,,2014-08-30 14:03:00,
2014-08-30 08:23:00,62.0,49.0,-100.00,WSW,251,3.0,6.0,63,0.00,,,0.01,,2014-08-30 14:23:00,
2014-08-30 09:02:00,61.0,48.0,-100.00,SSW,205,11.0,13.0,63,0.00,,,0.01,,2014-08-30 15:02:00,
2014-08-30 09:22:00,62.0,48.0,-100.00,SW,217,9.0,13.0,62,0.00,,,0.01,,2014-08-30 15:22:00,
2014-08-30 09:55:00,63.0,48.0,-100.00,SSW,209,8.0,12.0,58,0.00,,,0.01,,2014-08-30 15:55:00,
2014-08-30 10:03:00,63.0,48.0,-100.00,SSW,209,8.0,12.0,58,0.00,,,0.01,,2014-08-30 16:03:00,
2014-08-30 10:24:00,62.0,49.0,-100.00,SSW,199,10.0,12.0,62,0.00,,,0.01,,2014-08-30 16:24:00,
2014-08-30 10:34:00,62.0,49.0,-100.00,SSW,199,10.0,12.0,62,0.00,,,0.01,,2014-08-30 16:34:00,
2014-08-30 10:54:00,63.0,48.0,-100.00,SSW,200,10.0,13.0,58,0.00,,,0.01,,2014-08-30 16:54:00,
2014-08-30 11:04:00,63.0,48.0,-100.00,SSW,200,10.0,13.0,58,0.00,,,0.01,,2014-08-30 17:04:00,
2014-08-30 11:24:00,66.0,46.0,-100.00,SSW,208,9.0,15.0,49,0.00,,,0.01,,2014-08-30 17:24:00,
2014-08-30 11:53:00,69.0,44.0,-100.00,West,265,10.0,13.0,40,0.00,,,0.01,,2014-08-30 17:53:00,